Weather History for Jamestown, ND

Change the Weather History Date:

Monday, August 26, 2013

  Actual Average Record
Temperature  
Mean Temperature 75 °F 66 °F  
Max Temperature 84 °F 79 °F 100 °F (1976)
Min Temperature 66 °F 53 °F 36 °F (1915)
Degree Days  
Heating Degree Days 0 2  
Month to date heating degree days 21 31  
Since 1 June heating degree days 129 150  
Since 1 July heating degree days 44 53  
Cooling Degree Days 10 3  
Month to date cooling degree days 114 130  
Year to date cooling degree days 407 402  
Since 1 June cooling degree days 396 382  
Growing Degree Days 26 (Base 50)    
Moisture  
Dew Point 68 °F    
Average Humidity 72    
Maximum Humidity 93    
Minimum Humidity 51    
Precipitation  
Precipitation T in 0.08 in 0.60 in (1977)
Month to date precipitation 0.94 1.73  
Year to date precipitation 8.93 13.82  
Sea Level Pressure  
Sea Level Pressure 29.88 in    
Wind  
Wind Speed 4 mph (NE)    
Max Wind Speed 14 mph    
Max Gust Speed 20 mph    
Visibility 10 miles    
Events Rain    
T = Trace of Precipitation, MM = Missing Value Source: NWS Daily Summary

Daily Weather History Graph

Daily Weather History Graph

Search for Another Location

Airport:

Trip Planner

Search our weather history database for the weather conditions in past years. The results will help you decide how hot, cold, wet, or windy it might be!

Date:

Astronomy

Aug. 26, 2013 Rise Set
Actual Time 6:46 AM CDT 8:25 PM CDT
Civil Twilight 6:14 AM CDT 8:56 PM CDT
Nautical Twilight 5:35 AM CDT 9:35 PM CDT
Astronomical Twilight 4:53 AM CDT 10:18 PM CDT
Moon 11:09 PM CDT (8/26) 1:16 PM CDT (8/26)
Length of Visible Light 14h 42m
Length of Day
13h 38m
Waning Gibbous, 66% of the Moon is Illuminated
Aug 26
Waning Gibbous
Aug 28
Last Quarter
Sep 5
New
Sep 12
First Quarter
Sep 19
Full

Hourly Weather History & Observations

Time (CDT) Temp. Heat Index Dew Point Humidity Pressure Visibility Wind Dir Wind Speed Gust Speed Precip Events Conditions
12:56 AM 72.0 °F - 69.1 °F 91% 29.91 in 10.0 mi Calm Calm - N/A   Clear
1:56 AM 73.0 °F - 69.1 °F 87% 29.90 in 10.0 mi Calm Calm - N/A   Clear
2:56 AM 73.0 °F - 68.0 °F 84% 29.89 in 10.0 mi East 5.8 mph - N/A   Clear
3:56 AM 71.1 °F - 68.0 °F 90% 29.90 in 10.0 mi Calm Calm - N/A   Clear
4:56 AM 70.0 °F - 66.9 °F 90% 29.90 in 10.0 mi Calm Calm - N/A   Clear
5:56 AM 69.1 °F - 66.0 °F 90% 29.91 in 10.0 mi Calm Calm - N/A   Clear
6:56 AM 68.0 °F - 64.9 °F 90% 29.91 in 10.0 mi Calm Calm - N/A   Clear
7:56 AM 71.1 °F - 66.9 °F 87% 29.91 in 10.0 mi ENE 3.5 mph - N/A   Clear
8:56 AM 77.0 °F - 69.1 °F 76% 29.91 in 10.0 mi East 4.6 mph - N/A   Clear
9:56 AM 80.1 °F 83.6 °F 71.1 °F 74% 29.89 in 10.0 mi East 5.8 mph - 0.00 in   Partly Cloudy
10:56 AM 82.0 °F 87.4 °F 73.0 °F 74% 29.89 in 10.0 mi East 4.6 mph - N/A   Clear
11:56 AM 82.9 °F 90.2 °F 75.0 °F 77% 29.90 in 10.0 mi Calm Calm - 0.00 in Rain Light Rain
12:56 PM 82.9 °F 90.2 °F 75.0 °F 77% 29.89 in 10.0 mi NNE 5.8 mph - 0.00 in   Scattered Clouds
1:56 PM 81.0 °F 86.2 °F 73.9 °F 79% 29.89 in 10.0 mi NE 6.9 mph - N/A   Partly Cloudy
2:56 PM 82.0 °F 88.6 °F 75.0 °F 79% 29.88 in 10.0 mi NNE 10.4 mph - 0.00 in Rain Light Rain
3:56 PM 82.0 °F 85.9 °F 70.0 °F 67% 29.87 in 10.0 mi NNE 9.2 mph - N/A   Clear
4:56 PM 84.0 °F 85.4 °F 64.0 °F 51% 29.87 in 10.0 mi NNE 8.1 mph 17.3 mph N/A   Clear
5:56 PM 81.0 °F 82.5 °F 64.0 °F 56% 29.87 in 10.0 mi North 11.5 mph - N/A   Mostly Cloudy
6:56 PM 78.1 °F - 64.9 °F 64% 29.86 in 10.0 mi North 8.1 mph - N/A   Scattered Clouds
7:56 PM 75.9 °F - 64.0 °F 67% 29.85 in 10.0 mi NE 4.6 mph - N/A   Clear
8:56 PM 73.9 °F - 64.0 °F 71% 29.83 in 10.0 mi ESE 3.5 mph - N/A   Clear
9:56 PM 70.0 °F - 64.9 °F 84% 29.86 in 10.0 mi Calm Calm - N/A   Clear
10:56 PM 69.1 °F - 64.9 °F 87% 29.86 in 10.0 mi NE 3.5 mph - N/A   Clear
11:56 PM 68.0 °F - 64.0 °F 87% 29.84 in 10.0 mi ENE 3.5 mph - N/A   Clear